Regional Weather Roundup
Issued by NWS Little Rock, AR

Home | Current Version | Previous Version | Text Only | Print | Product List | Glossary Off
Versions: 1 2 3 4 5 6 7 8 9 10 11 12 13 14 15 16 17 18 19 20 21 22 23 24 25 26 27 28 29 30 31 32 33 34 35 36 37 38 39 40 41 42 43 44 45 46 47 48 49 50

092
ASUS44 KLZK 130612
RWRLZK

WEATHER ROUNDUP FOR ARKANSAS
NATIONAL WEATHER SERVICE LITTLE ROCK AR
1200 AM CST WED DEC 13 2017

NOTE: "FAIR" INDICATES FEW OR NO CLOUDS BELOW 12,000 FEET WITH NO
SIGNIFICANT WEATHER AND/OR OBSTRUCTIONS TO VISIBILITY.

ARZ001-003-010-029-130700-
NORTHWEST ARKANSAS

CITY           SKY/WX    TMP DP  RH WIND       PRES   REMARKS
FAYETTEVILLE   CLOUDY    26  17  68 CALM      30.09F
6HR MIN TEMP:  24; 6HR MAX TEMP:  35;

FORT SMITH     CLOUDY    31  19  61 CALM      30.13F
6HR MIN TEMP:  29; 6HR MAX TEMP:  43;

HARRISON       CLOUDY    30  13  49 SE3       30.07F
6HR MIN TEMP:  27; 6HR MAX TEMP:  36;

BENTONVILLE    CLEAR     30  15  53 S6        30.09F WCI  24
6HR MIN TEMP:  29; 6HR MAX TEMP:  36;

ROGERS         CLOUDY    32  17  54 S9        30.07F WCI  24
6HR MIN TEMP:  30; 6HR MAX TEMP:  36;

SILOAM SPGS    CLEAR     29  15  56 S8        30.08F WCI  21
6HR MIN TEMP:  27; 6HR MAX TEMP:  37;

HIGHFILL       CLOUDY    29  14  53 S7        30.07F WCI  22
6HR MIN TEMP:  27; 6HR MAX TEMP:  35;

$$

ARZ004-005-016-130700-
NORTH CENTRAL ARKANSAS

CITY           SKY/WX    TMP DP  RH WIND       PRES   REMARKS
BATESVILLE     CLOUDY    30  18  60 CALM      30.14F
6HR MIN TEMP:  30; 6HR MAX TEMP:  40;

FLIPPIN        CLEAR     29  13  51 W3        30.11F
6HR MIN TEMP:  28; 6HR MAX TEMP:  38;

MTN HOME       CLEAR     32  10  40 W5        30.08F WCI  27
6HR MIN TEMP:  30; 6HR MAX TEMP:  37;

$$

ARZ040-041-130700-
WEST CENTRAL ARKANSAS

CITY           SKY/WX    TMP DP  RH WIND       PRES   REMARKS
MENA           CLOUDY    30  19  64 CALM      30.14F
MOUNT IDA      CLOUDY    29  16  58 CALM      30.12F
6HR MIN TEMP:  29; 6HR MAX TEMP:  42;

$$

ARZ009-017-025-026-028-130700-
NORTHEAST ARKANSAS

CITY           SKY/WX    TMP DP  RH WIND       PRES   REMARKS
JONESBORO      CLEAR     28  20  71 CALM      30.14S
6HR MIN TEMP:  28; 6HR MAX TEMP:  40;

NEWPORT        CLOUDY    29  22  75 SW3       30.15F
6HR MIN TEMP:  29; 6HR MAX TEMP:  39;

WALNUT RIDGE   CLOUDY    30  16  56 SW3       30.13F
6HR MIN TEMP:  29; 6HR MAX TEMP:  39;

BLYTHEVILLE    CLOUDY    30  20  66 SW5       30.14F WCI  25
6HR MIN TEMP:  28; 6HR MAX TEMP:  34;

$$

ARZ022-023-033-042-044-130700-
CENTRAL ARKANSAS

CITY           SKY/WX    TMP DP  RH WIND       PRES   REMARKS
LITTLE ROCK    CLOUDY    34  20  56 SW6       30.17R WCI  29
6HR MIN TEMP:  33; 6HR MAX TEMP:  45;

N LITTLE ROCK    N/A     38  18  44 W3        30.18S
6HR MIN TEMP:  38; 6HR MAX TEMP:  45;

JACKSONVILLE   CLOUDY    28  20  73 CALM      30.15S
6HR MIN TEMP:  26; 6HR MAX TEMP:  41;

SEARCY         CLOUDY    28  23  81 CALM      30.16S
6HR MIN TEMP:  26; 6HR MAX TEMP:  42;

HOT SPRINGS    CLEAR     34  23  64 CALM      30.16F
6HR MIN TEMP:  34; 6HR MAX TEMP:  47;

RUSSELLVILLE   CLOUDY    28  20  71 CALM      30.14F
6HR MIN TEMP:  27; 6HR MAX TEMP:  45;

CLINTON        FAIR      25  19  80 CALM      30.15F
$$

ARZ036-130700-
EAST ARKANSAS

CITY           SKY/WX    TMP DP  RH WIND       PRES   REMARKS
WEST MEMPHIS   CLOUDY    27  23  85 CALM      30.14F
6HR MIN TEMP:  26; 6HR MAX TEMP:  36;

$$

ARZ050-053-066-070-073-130700-
SOUTHWEST ARKANSAS

CITY           SKY/WX    TMP DP  RH WIND       PRES   REMARKS
ARKADELPHIA    FAIR      28  21  75 CALM      30.18F
6HR MIN TEMP:  27; 6HR MAX TEMP:  44;

CAMDEN         CLOUDY    28  23  80 CALM      30.19S
TEXARKANA      CLOUDY    38  19  46 CALM      30.18F
6HR MIN TEMP:  36; 6HR MAX TEMP:  49;

EL DORADO      CLOUDY    32  25  75 CALM      30.19F
6HR MIN TEMP:  30; 6HR MAX TEMP:  43;

DE QUEEN       CLOUDY    26  24  92 CALM      30.16F
6HR MIN TEMP:  26; 6HR MAX TEMP:  46;

$$

ARZ056-057-069-130700-
SOUTHEAST ARKANSAS

CITY           SKY/WX    TMP DP  RH WIND       PRES   REMARKS
PINE BLUFF     CLOUDY    27  23  85 SW5       30.17S WCI  22
6HR MIN TEMP:  27; 6HR MAX TEMP:  46;

STUTTGART      CLEAR     33  26  75 CALM      30.16F
6HR MIN TEMP:  32; 6HR MAX TEMP:  42;

MONTICELLO     CLOUDY    31  24  75 CALM      30.18S
6HR MIN TEMP:  29; 6HR MAX TEMP:  44;


$$






USA.gov is the U.S. government's official web portal to all federal, state and local government web resources and services.